| time (UTC) | temp F | wind direction | speed knots | gust knots | rain 1hr in | rain 24hr in | rain mn in | humidity % | barometer mb |
| 20260502225803 | 63 | 0 | 5.2 | 10.4 | 0.00 | 0.00 | 0.00 | 30 | 1012.2 |
| 20260502224803 | 63 | 291 | 1.7 | 7.0 | 0.00 | 0.00 | 0.00 | 30 | 1012.3 |
| 20260502224303 | 63 | 285 | 2.6 | 8.7 | 0.00 | 0.00 | 0.00 | 30 | 1012.5 |
| 20260502223803 | 63 | 248 | 4.3 | 8.7 | 0.00 | 0.00 | 0.00 | 30 | 1012.6 |
| 20260502223303 | 63 | 255 | 5.2 | 11.3 | 0.00 | 0.00 | 0.00 | 30 | 1012.6 |
| 20260502222305 | 64 | 258 | 6.1 | 11.3 | 0.00 | 0.00 | 0.00 | 30 | 1012.7 |
| 20260502221803 | 64 | 280 | 4.3 | 7.0 | 0.00 | 0.00 | 0.00 | 30 | 1012.6 |
| 20260502220803 | 63 | 237 | 5.2 | 13.0 | 0.00 | 0.00 | 0.00 | 30 | 1012.8 |
| 20260502220303 | 64 | 271 | 7.8 | 15.6 | 0.00 | 0.00 | 0.00 | 30 | 1012.7 |
| 20260502215803 | 64 | 268 | 2.6 | 13.0 | 0.00 | 0.00 | 0.00 | 31 | 1012.8 |
| 20260502215305 | 64 | 249 | 5.2 | 12.2 | 0.00 | 0.00 | 0.00 | 31 | 1012.9 |
| 20260502214303 | 64 | 235 | 2.6 | 7.0 | 0.00 | 0.00 | 0.00 | 31 | 1013.0 |
| 20260502213303 | 63 | 193 | 5.2 | 13.0 | 0.00 | 0.00 | 0.00 | 31 | 1013.2 |
| 20260502212803 | 63 | 295 | 7.8 | 13.0 | 0.00 | 0.00 | 0.00 | 31 | 1013.3 |
| 20260502212304 | 64 | 284 | 6.1 | 11.3 | 0.00 | 0.00 | 0.00 | 31 | 1013.3 |
| 20260502211803 | 64 | 243 | 4.3 | 10.4 | 0.00 | 0.00 | 0.00 | 31 | 1013.3 |
| 20260502211303 | 63 | 238 | 4.3 | 10.4 | 0.00 | 0.00 | 0.00 | 31 | 1013.5 |
| 20260502205803 | 63 | 261 | 5.2 | 12.2 | 0.00 | 0.00 | 0.00 | 30 | 1013.8 |
| 20260502205305 | 63 | 202 | 3.5 | 10.4 | 0.00 | 0.00 | 0.00 | 30 | 1013.8 |
| 20260502204803 | 63 | 232 | 4.3 | 10.4 | 0.00 | 0.00 | 0.00 | 30 | 1013.9 |
| 20260502204303 | 63 | 260 | 5.2 | 10.4 | 0.00 | 0.00 | 0.00 | 30 | 1014.0 |
| 20260502203803 | 62 | 242 | 5.2 | 17.4 | 0.00 | 0.00 | 0.00 | 30 | 1014.2 |
| 20260502203302 | 63 | 263 | 6.1 | 11.3 | 0.00 | 0.00 | 0.00 | 30 | 1014.3 |
| 20260502202803 | 63 | 216 | 3.5 | 8.7 | 0.00 | 0.00 | 0.00 | 30 | 1014.3 |
| 20260502202304 | 62 | 256 | 2.6 | 10.4 | 0.00 | 0.00 | 0.00 | 30 | 1014.3 |
| 20260502201303 | 62 | 241 | 4.3 | 11.3 | 0.00 | 0.00 | 0.00 | 30 | 1014.5 |
| 20260502200803 | 61 | 0 | 4.3 | 10.4 | 0.00 | 0.00 | 0.00 | 30 | 1014.6 |
| 20260502200303 | 62 | 0 | 3.5 | 10.4 | 0.00 | 0.00 | 0.00 | 30 | 1014.8 |
| 20260502195803 | 62 | 0 | 6.1 | 10.4 | 0.00 | 0.00 | 0.00 | 30 | 1014.9 |
| 20260502195305 | 62 | 0 | 1.7 | 7.0 | 0.00 | 0.00 | 0.00 | 30 | 1014.9 |
| 20260502194803 | 61 | 0 | 6.1 | 13.9 | 0.00 | 0.00 | 0.00 | 30 | 1015.1 |
| 20260502194303 | 61 | 274 | 2.6 | 10.4 | 0.00 | 0.00 | 0.00 | 30 | 1015.2 |
| 20260502193803 | 61 | 304 | 6.1 | 10.4 | 0.00 | 0.00 | 0.00 | 30 | 1015.4 |
| 20260502193303 | 61 | 215 | 4.3 | 10.4 | 0.00 | 0.00 | 0.00 | 30 | 1015.4 |
| 20260502192305 | 61 | 253 | 4.3 | 8.7 | 0.00 | 0.00 | 0.00 | 30 | 1015.5 |
| 20260502191803 | 60 | 250 | 8.7 | 13.0 | 0.00 | 0.00 | 0.00 | 30 | 1015.6 |
| 20260502191303 | 60 | 290 | 2.6 | 7.8 | 0.00 | 0.00 | 0.00 | 30 | 1015.6 |
| 20260502190803 | 60 | 283 | 5.2 | 10.4 | 0.00 | 0.00 | 0.00 | 30 | 1015.8 |
| 20260502190303 | 60 | 283 | 3.5 | 10.4 | 0.00 | 0.00 | 0.00 | 30 | 1015.9 |
| 20260502185803 | 60 | 300 | 3.5 | 7.0 | 0.00 | 0.00 | 0.00 | 30 | 1015.9 |
| 20260502185305 | 60 | 297 | 4.3 | 10.4 | 0.00 | 0.00 | 0.00 | 30 | 1016.0 |
| 20260502184303 | 60 | 0 | 3.5 | 7.8 | 0.00 | 0.00 | 0.00 | 30 | 1016.2 |
| 20260502183803 | 60 | 0 | 4.3 | 8.7 | 0.00 | 0.00 | 0.00 | 30 | 1016.2 |
| 20260502183303 | 59 | 0 | 3.5 | 10.4 | 0.00 | 0.00 | 0.00 | 30 | 1016.3 |
| 20260502182803 | 59 | 0 | 2.6 | 10.4 | 0.00 | 0.00 | 0.00 | 30 | 1016.4 |
| 20260502182304 | 60 | 0 | 5.2 | 14.8 | 0.00 | 0.00 | 0.00 | 30 | 1016.5 |
| 20260502181303 | 60 | 0 | 2.6 | 10.4 | 0.00 | 0.00 | 0.00 | 30 | 1016.6 |
| 20260502180803 | 59 | 0 | 2.6 | 7.8 | 0.00 | 0.00 | 0.00 | 30 | 1016.6 |
| 20260502180303 | 58 | 0 | 4.3 | 10.4 | 0.00 | 0.00 | 0.00 | 30 | 1016.8 |
| 20260502170303 | 57 | 0 | 5.2 | 12.2 | 0.00 | 0.00 | 0.00 | 34 | 1017.7 |
| 20260502164303 | 56 | 0 | 1.7 | 8.7 | 0.00 | 0.00 | 0.00 | 35 | 1017.8 |
| 20260502162803 | 56 | 0 | 6.1 | 12.2 | 0.00 | 0.00 | 0.00 | 35 | 1018.0 |
| 20260502162304 | 56 | 0 | 4.3 | 14.8 | 0.00 | 0.00 | 0.00 | 35 | 1018.1 |
| 20260502161804 | 55 | 0 | 4.3 | 13.9 | 0.00 | 0.00 | 0.00 | 35 | 1018.2 |
| 20260502161303 | 55 | 0 | 6.1 | 10.4 | 0.00 | 0.00 | 0.00 | 35 | 1018.3 |
| 20260502160803 | 56 | 0 | 5.2 | 11.3 | 0.00 | 0.00 | 0.00 | 35 | 1018.4 |
| 20260502160303 | 56 | 0 | 4.3 | 12.2 | 0.00 | 0.00 | 0.00 | 35 | 1018.4 |
| 20260502152305 | 55 | 0 | 7.0 | 12.2 | 0.00 | 0.00 | 0.00 | 42 | 1018.5 |
| 20260502151804 | 54 | 0 | 5.2 | 12.2 | 0.00 | 0.00 | 0.00 | 42 | 1018.6 |
| 20260502151303 | 54 | 0 | 3.5 | 10.4 | 0.00 | 0.00 | 0.00 | 42 | 1018.5 |
| 20260502150803 | 54 | 0 | 1.7 | 7.0 | 0.00 | 0.00 | 0.00 | 42 | 1018.6 |
| 20260502150303 | 54 | 0 | 4.3 | 8.7 | 0.00 | 0.00 | 0.00 | 42 | 1018.6 |
| 20260502130304 | 43 | 0 | 0.9 | 2.6 | 0.00 | 0.00 | 0.00 | 60 | 1019.1 |
| 20260502123804 | 39 | 0 | 0.9 | 2.6 | 0.00 | 0.00 | 0.00 | 73 | 1019.1 |
| 20260502123303 | 38 | 0 | 1.7 | 2.6 | 0.00 | 0.00 | 0.00 | 73 | 1019.1 |
| 20260502122305 | 36 | 0 | 0.9 | 2.6 | 0.00 | 0.00 | 0.00 | 73 | 1019.1 |
| 20260502121803 | 35 | 0 | 0.9 | 2.6 | 0.00 | 0.00 | 0.00 | 73 | 1019.0 |
| 20260502121303 | 34 | 0 | 0.9 | 2.6 | 0.00 | 0.00 | 0.00 | 73 | 1019.0 |
| 20260502120803 | 33 | 0 | 1.7 | 2.6 | 0.00 | 0.00 | 0.00 | 73 | 1019.1 |
| 20260502120304 | 33 | 0 | 0.9 | 1.7 | 0.00 | 0.00 | 0.00 | 73 | 1019.0 |
| 20260502115803 | 32 | 0 | 0.0 | 1.7 | 0.00 | 0.00 | 0.00 | 75 | 1019.1 |
| 20260502115305 | 31 | 0 | 0.0 | 0.9 | 0.00 | 0.00 | 0.00 | 75 | 1019.0 |
| 20260502114803 | 31 | 0 | 0.0 | 0.9 | 0.00 | 0.00 | 0.00 | 75 | 1019.0 |
| 20260502114303 | 31 | 307 | 0.0 | 0.9 | 0.00 | 0.00 | 0.00 | 75 | 1019.0 |
| 20260502113803 | 30 | 306 | 0.0 | 0.9 | 0.00 | 0.00 | 0.00 | 75 | 1019.0 |
| 20260502113303 | 30 | 347 | 0.0 | 0.9 | 0.00 | 0.00 | 0.00 | 75 | 1018.9 |
| 20260502112804 | 30 | 348 | 0.0 | 0.9 | 0.00 | 0.00 | 0.00 | 75 | 1018.9 |
| 20260502111804 | 29 | 348 | 0.0 | 0.9 | 0.00 | 0.00 | 0.00 | 75 | 1018.9 |
| 20260502111304 | 29 | 348 | 0.0 | 0.0 | 0.00 | 0.00 | 0.00 | 75 | 1018.8 |
| 20260502110803 | 29 | 348 | 0.0 | 0.0 | 0.00 | 0.00 | 0.00 | 75 | 1018.9 |
| 20260502110303 | 29 | 348 | 0.0 | 0.0 | 0.00 | 0.00 | 0.00 | 75 | 1018.9 |
| 20260502105803 | 29 | 348 | 0.0 | 0.0 | 0.00 | 0.00 | 0.00 | 73 | 1018.9 |
| 20260502104803 | 29 | 348 | 0.0 | 0.0 | 0.00 | 0.00 | 0.00 | 73 | 1018.8 |
| 20260502104303 | 29 | 348 | 0.0 | 0.0 | 0.00 | 0.00 | 0.00 | 73 | 1018.9 |
| 20260502103803 | 29 | 348 | 0.0 | 0.0 | 0.00 | 0.00 | 0.00 | 73 | 1018.8 |
| 20260502103303 | 29 | 348 | 0.0 | 0.0 | 0.00 | 0.00 | 0.00 | 73 | 1018.8 |
| 20260502102803 | 29 | 348 | 0.0 | 0.0 | 0.00 | 0.00 | 0.00 | 73 | 1018.8 |
| 20260502102306 | 29 | 348 | 0.0 | 0.0 | 0.00 | 0.00 | 0.00 | 73 | 1018.9 |
| 20260502101803 | 29 | 348 | 0.0 | 0.0 | 0.00 | 0.00 | 0.00 | 73 | 1018.9 |
| 20260502101303 | 29 | 348 | 0.0 | 0.0 | 0.00 | 0.00 | 0.00 | 73 | 1018.9 |
| 20260502100803 | 29 | 348 | 0.0 | 0.0 | 0.00 | 0.00 | 0.00 | 73 | 1018.9 |
| 20260502100303 | 29 | 348 | 0.0 | 0.0 | 0.00 | 0.00 | 0.00 | 73 | 1018.9 |
| 20260502091303 | 29 | 348 | 0.0 | 0.0 | 0.00 | 0.00 | 0.00 | 71 | 1019.0 |
| 20260502090803 | 29 | 348 | 0.0 | 0.0 | 0.00 | 0.00 | 0.00 | 71 | 1019.0 |
| 20260502090303 | 29 | 348 | 0.0 | 0.0 | 0.00 | 0.00 | 0.00 | 71 | 1018.9 |
| 20260502071303 | 30 | 348 | 0.0 | 0.0 | 0.00 | 0.00 | 0.00 | 65 | 1019.0 |
| 20260502070804 | 30 | 348 | 0.0 | 0.0 | 0.00 | 0.00 | 0.00 | 65 | 1019.0 |
| 20260502065803 | 30 | 348 | 0.0 | 0.0 | 0.00 | 0.00 | 0.00 | 65 | 1019.1 |
| 20260502065306 | 30 | 348 | 0.0 | 0.0 | 0.00 | 0.00 | 0.00 | 65 | 1019.1 |
| 20260502064804 | 30 | 348 | 0.0 | 0.0 | 0.00 | 0.00 | 0.00 | 65 | 1019.1 |
| 20260502064303 | 30 | 348 | 0.0 | 0.0 | 0.00 | 0.00 | 0.00 | 65 | 1019.1 |
| 20260502063804 | 30 | 348 | 0.0 | 0.0 | 0.00 | 0.00 | 0.00 | 65 | 1019.2 |
| 20260502062803 | 30 | 348 | 0.0 | 0.0 | 0.00 | 0.00 | 0.00 | 65 | 1019.2 |
| 20260502062306 | 31 | 348 | 0.0 | 0.0 | 0.00 | 0.00 | 0.00 | 65 | 1019.2 |
| 20260502061803 | 31 | 348 | 0.0 | 0.0 | 0.00 | 0.00 | 0.00 | 65 | 1019.2 |
| 20260502061303 | 31 | 348 | 0.0 | 0.0 | 0.00 | 0.00 | 0.00 | 65 | 1019.2 |
| 20260502060803 | 31 | 348 | 0.0 | 0.0 | 0.00 | 0.00 | 0.00 | 65 | 1019.1 |
| 20260502060303 | 31 | 348 | 0.0 | 0.0 | 0.00 | 0.00 | 0.00 | 65 | 1019.1 |
| 20260502055804 | 31 | 348 | 0.0 | 0.0 | 0.00 | 0.00 | 0.00 | 66 | 1019.1 |
| 20260502055305 | 31 | 348 | 0.0 | 0.0 | 0.00 | 0.00 | 0.00 | 66 | 1019.1 |
| 20260502054804 | 32 | 348 | 0.0 | 0.0 | 0.00 | 0.00 | 0.00 | 66 | 1019.1 |
| 20260502054304 | 32 | 348 | 0.0 | 0.0 | 0.00 | 0.00 | 0.00 | 66 | 1019.1 |
| 20260502053803 | 32 | 348 | 0.0 | 0.0 | 0.00 | 0.00 | 0.00 | 66 | 1019.1 |
| 20260502051803 | 32 | 348 | 0.0 | 0.0 | 0.00 | 0.00 | 0.00 | 66 | 1019.1 |
| 20260502051303 | 32 | 348 | 0.0 | 0.0 | 0.00 | 0.00 | 0.00 | 66 | 1019.1 |
| 20260502050814 | 33 | 348 | 0.0 | 0.0 | 0.00 | 0.00 | 0.00 | 66 | 1019.0 |
| 20260502050303 | 33 | 348 | 0.0 | 0.0 | 0.00 | 0.00 | 0.00 | 66 | 1019.0 |
| 20260502045804 | 33 | 348 | 0.0 | 0.0 | 0.00 | 0.00 | 0.00 | 64 | 1019.0 |
| 20260502044804 | 33 | 348 | 0.0 | 0.0 | 0.00 | 0.00 | 0.00 | 64 | 1019.0 |
| 20260502044304 | 33 | 348 | 0.0 | 0.0 | 0.00 | 0.00 | 0.00 | 64 | 1019.0 |
| 20260502043803 | 33 | 348 | 0.0 | 0.0 | 0.00 | 0.00 | 0.00 | 64 | 1019.0 |
| 20260502043303 | 33 | 348 | 0.0 | 0.0 | 0.00 | 0.00 | 0.00 | 64 | 1019.0 |
| 20260502042803 | 34 | 348 | 0.0 | 0.0 | 0.00 | 0.00 | 0.00 | 64 | 1019.1 |
| 20260502042306 | 34 | 348 | 0.0 | 0.0 | 0.00 | 0.00 | 0.00 | 64 | 1019.0 |
| 20260502041804 | 34 | 348 | 0.0 | 0.0 | 0.00 | 0.00 | 0.00 | 64 | 1019.1 |
| 20260502041304 | 34 | 348 | 0.0 | 0.0 | 0.00 | 0.00 | 0.00 | 64 | 1019.0 |
| 20260502040303 | 34 | 348 | 0.0 | 0.0 | 0.00 | 0.00 | 0.00 | 60 | 1019.0 |
| 20260502035804 | 34 | 348 | 0.0 | 0.0 | 0.00 | 0.00 | 0.00 | 41 | 1018.9 |
| 20260502035306 | 34 | 348 | 0.0 | 0.0 | 0.00 | 0.00 | 0.00 | 41 | 1019.0 |
| 20260502034804 | 35 | 348 | 0.0 | 0.0 | 0.00 | 0.00 | 0.00 | 41 | 1019.0 |
| 20260502034303 | 35 | 348 | 0.0 | 0.0 | 0.00 | 0.00 | 0.00 | 41 | 1019.0 |
| 20260502033803 | 35 | 348 | 0.0 | 0.0 | 0.00 | 0.00 | 0.00 | 41 | 1019.0 |
| 20260502033303 | 36 | 348 | 0.0 | 0.0 | 0.00 | 0.00 | 0.00 | 41 | 1019.0 |
| 20260502032803 | 36 | 0 | 0.0 | 0.0 | 0.00 | 0.00 | 0.00 | 41 | 1019.0 |
| 20260502032306 | 36 | 0 | 0.0 | 0.0 | 0.00 | 0.00 | 0.00 | 41 | 1019.0 |
| 20260502031804 | 36 | 0 | 0.0 | 0.0 | 0.00 | 0.00 | 0.00 | 41 | 1019.0 |
| 20260502031303 | 36 | 0 | 0.0 | 0.0 | 0.00 | 0.00 | 0.00 | 41 | 1019.0 |
| 20260502030303 | 37 | 0 | 0.0 | 0.0 | 0.00 | 0.00 | 0.00 | 41 | 1018.9 |
| 20260502025306 | 37 | 0 | 0.0 | 0.0 | 0.00 | 0.00 | 0.00 | 41 | 1019.0 |
| 20260502024303 | 38 | 359 | 0.0 | 0.0 | 0.00 | 0.00 | 0.00 | 41 | 1018.9 |
| 20260502023803 | 38 | 0 | 0.0 | 0.0 | 0.00 | 0.00 | 0.00 | 41 | 1018.9 |
| 20260502023303 | 39 | 0 | 0.0 | 0.0 | 0.00 | 0.00 | 0.00 | 41 | 1018.9 |
| 20260502022306 | 39 | 0 | 0.0 | 0.0 | 0.00 | 0.00 | 0.00 | 41 | 1018.8 |
| 20260502021803 | 40 | 0 | 0.0 | 0.0 | 0.00 | 0.00 | 0.00 | 41 | 1018.8 |
| 20260502021303 | 40 | 0 | 0.0 | 0.0 | 0.00 | 0.00 | 0.00 | 41 | 1018.7 |
| 20260502020804 | 41 | 0 | 0.0 | 0.0 | 0.00 | 0.00 | 0.00 | 41 | 1018.7 |
| 20260502020304 | 41 | 0 | 0.0 | 0.0 | 0.00 | 0.00 | 0.00 | 41 | 1018.6 |
| 20260502015804 | 41 | 0 | 0.0 | 0.0 | 0.00 | 0.00 | 0.00 | 36 | 1018.6 |
| 20260502015305 | 42 | 0 | 0.0 | 0.0 | 0.00 | 0.00 | 0.00 | 36 | 1018.5 |
| 20260502014803 | 42 | 0 | 0.0 | 0.0 | 0.00 | 0.00 | 0.00 | 36 | 1018.5 |
| 20260502013804 | 43 | 0 | 0.0 | 0.0 | 0.00 | 0.00 | 0.00 | 36 | 1018.4 |
| 20260502013303 | 44 | 0 | 0.0 | 0.0 | 0.00 | 0.00 | 0.00 | 36 | 1018.4 |
| 20260502012804 | 44 | 0 | 0.0 | 0.0 | 0.00 | 0.00 | 0.00 | 36 | 1018.4 |
| 20260502012306 | 45 | 358 | 0.0 | 0.0 | 0.00 | 0.00 | 0.00 | 36 | 1018.3 |
| 20260502011804 | 45 | 0 | 0.0 | 0.0 | 0.00 | 0.00 | 0.00 | 36 | 1018.3 |
| 20260502011303 | 46 | 358 | 0.0 | 0.0 | 0.00 | 0.00 | 0.00 | 36 | 1018.3 |
| 20260502010803 | 47 | 351 | 0.0 | 1.7 | 0.00 | 0.00 | 0.00 | 36 | 1018.2 |
| 20260502010304 | 47 | 0 | 1.7 | 2.6 | 0.00 | 0.00 | 0.00 | 36 | 1018.2 |
| 20260502005803 | 48 | 358 | 1.7 | 2.6 | 0.00 | 0.00 | 0.00 | 30 | 1018.2 |
| 20260502005306 | 48 | 0 | 1.7 | 4.3 | 0.00 | 0.00 | 0.00 | 30 | 1018.2 |
| 20260502004304 | 49 | 0 | 2.6 | 7.0 | 0.00 | 0.00 | 0.00 | 30 | 1018.1 |
| 20260502003804 | 49 | 0 | 1.7 | 4.3 | 0.00 | 0.00 | 0.00 | 30 | 1018.1 |
| 20260502003304 | 49 | 0 | 2.6 | 5.2 | 0.00 | 0.00 | 0.00 | 30 | 1018.0 |
| 20260502002804 | 50 | 0 | 2.6 | 5.2 | 0.00 | 0.00 | 0.00 | 30 | 1018.0 |
| 20260502002305 | 50 | 0 | 1.7 | 4.3 | 0.00 | 0.00 | 0.00 | 30 | 1018.0 |
| 20260502001803 | 50 | 0 | 2.6 | 7.0 | 0.00 | 0.00 | 0.00 | 30 | 1018.0 |
| 20260502001303 | 50 | 356 | 3.5 | 7.0 | 0.00 | 0.00 | 0.00 | 30 | 1018.0 |
| 20260502000803 | 49 | 0 | 4.3 | 7.8 | 0.00 | 0.00 | 0.00 | 30 | 1017.9 |
| 20260502000303 | 49 | 0 | 2.6 | 5.2 | 0.00 | 0.00 | 0.00 | 30 | 1017.9 |
| 20260501235804 | 50 | 0 | 4.3 | 7.8 | 0.00 | 0.00 | 0.00 | 31 | 1017.9 |
| 20260501235305 | 50 | 0 | 3.5 | 7.0 | 0.00 | 0.00 | 0.00 | 31 | 1017.9 |
| 20260501234803 | 50 | 0 | 4.3 | 10.4 | 0.00 | 0.00 | 0.00 | 31 | 1017.9 |
| 20260501234304 | 51 | 0 | 5.2 | 8.7 | 0.00 | 0.00 | 0.00 | 31 | 1017.9 |
| 20260501233303 | 51 | 0 | 4.3 | 10.4 | 0.00 | 0.00 | 0.00 | 31 | 1017.8 |
| 20260501232803 | 51 | 0 | 5.2 | 8.7 | 0.00 | 0.00 | 0.00 | 31 | 1017.8 |
| 20260501232305 | 50 | 0 | 3.5 | 8.7 | 0.00 | 0.00 | 0.00 | 31 | 1017.8 |
| 20260501231803 | 49 | 0 | 2.6 | 7.8 | 0.00 | 0.00 | 0.00 | 31 | 1017.9 |
| 20260501231303 | 49 | 0 | 2.6 | 7.0 | 0.00 | 0.00 | 0.00 | 31 | 1017.9 |
| 20260501230803 | 49 | 0 | 3.5 | 7.8 | 0.00 | 0.00 | 0.00 | 31 | 1017.9 |